• In Deutschland
  • Länderverzeichnis
  • Für 7 Tage
  • Wassertemperatur
  • Satellitenkarten
  • Wetterkarte
  • Widgets
  • user-avatar
    Anmelden

    Stündliche Wetter Linz

    Heute, 25 Mai, Donnerstag

    Zeit Temperatur Niederschläge Wind Luftdruck Luftfeuchtigkeit
    00:00 +10°C° 0,7 mm 2 m/S 736 mmHg 96%
    01:00 +10°C° 0,7 mm 1 m/S 737 mmHg 96%
    02:00 +9°C° 0,1 mm 1 m/S 737 mmHg 96%
    03:00 +9°C° 0,1 mm 1 m/S 737 mmHg 96%
    04:00 +8°C° 0,1 mm 1 m/S 737 mmHg 96%
    05:00 +10°C° 0 mm 1 m/S 737 mmHg 94%
    06:00 +10°C° 0 mm 2 m/S 737 mmHg 92%
    07:00 +13°C° 0 mm 2 m/S 737 mmHg 89%
    08:00 +14°C° 0,1 mm 2 m/S 737 mmHg 83%
    09:00 +15°C° 0,1 mm 2 m/S 737 mmHg 76%
    10:00 +16°C° 0,1 mm 3 m/S 737 mmHg 69%
    11:00 +17°C° 0,1 mm 3 m/S 737 mmHg 66%
    12:00 +18°C° 0,1 mm 3 m/S 736 mmHg 64%
    13:00 +19°C° 0,1 mm 3 m/S 736 mmHg 61%
    14:00 +19°C° 0,1 mm 3 m/S 736 mmHg 63%
    15:00 +19°C° 0,1 mm 3 m/S 736 mmHg 64%
    16:00 +19°C° 0,1 mm 3 m/S 736 mmHg 65%
    17:00 +18°C° 0,1 mm 2 m/S 736 mmHg 72%
    18:00 +16°C° 0,1 mm 2 m/S 736 mmHg 79%
    19:00 +15°C° 0,1 mm 1 m/S 735 mmHg 87%
    20:00 +14°C° 0,1 mm 1 m/S 736 mmHg 89%
    21:00 +12°C° 0,1 mm 1 m/S 736 mmHg 91%
    22:00 +11°C° 0,1 mm 1 m/S 736 mmHg 93%
    23:00 +10°C° 0 mm 1 m/S 736 mmHg 93%

    Morgen, 26 Mai, Freitag

    Zeit Temperatur Niederschläge Wind Luftdruck Luftfeuchtigkeit
    00:00 +10°C° 0 mm 1 m/S 736 mmHg 93%
    01:00 +10°C° 0 mm 1 m/S 736 mmHg 93%
    02:00 +10°C° 0 mm 1 m/S 736 mmHg 94%
    03:00 +10°C° 0 mm 1 m/S 736 mmHg 94%
    04:00 +10°C° 0 mm 1 m/S 736 mmHg 94%
    05:00 +12°C° 0 mm 1 m/S 736 mmHg 91%
    06:00 +13°C° 0 mm 1 m/S 736 mmHg 89%
    07:00 +15°C° 0 mm 1 m/S 736 mmHg 86%
    08:00 +16°C° 0,1 mm 1 m/S 736 mmHg 79%
    09:00 +19°C° 0,1 mm 1 m/S 736 mmHg 73%
    10:00 +19°C° 0,1 mm 2 m/S 736 mmHg 66%
    11:00 +20°C° 0,1 mm 2 m/S 736 mmHg 63%
    12:00 +20°C° 0,1 mm 2 m/S 736 mmHg 60%
    13:00 +21°C° 0,1 mm 2 m/S 736 mmHg 58%
    14:00 +21°C° 0 mm 2 m/S 736 mmHg 59%
    15:00 +21°C° 0 mm 2 m/S 736 mmHg 60%
    16:00 +21°C° 0 mm 3 m/S 735 mmHg 62%
    17:00 +20°C° 0 mm 2 m/S 735 mmHg 69%
    18:00 +18°C° 0 mm 2 m/S 736 mmHg 77%
    19:00 +17°C° 0 mm 2 m/S 736 mmHg 84%
    20:00 +15°C° 0 mm 1 m/S 736 mmHg 87%
    21:00 +13°C° 0 mm 1 m/S 736 mmHg 91%
    22:00 +11°C° 0 mm 1 m/S 736 mmHg 94%
    23:00 +11°C° 0 mm 1 m/S 736 mmHg 94%

    übermorgen, 27 Mai, Samstag

    Zeit Temperatur Niederschläge Wind Luftdruck Luftfeuchtigkeit
    00:00 +10°C° 0 mm 1 m/S 736 mmHg 95%
    01:00 +10°C° 0 mm 1 m/S 737 mmHg 95%
    02:00 +10°C° 0 mm 1 m/S 737 mmHg 95%
    03:00 +10°C° 0 mm 1 m/S 737 mmHg 95%
    04:00 +10°C° 0 mm 1 m/S 737 mmHg 96%
    05:00 +12°C° 0 mm 1 m/S 737 mmHg 90%
    06:00 +15°C° 0 mm 1 m/S 737 mmHg 85%
    07:00 +18°C° 0 mm 1 m/S 737 mmHg 79%
    08:00 +19°C° 0 mm 2 m/S 737 mmHg 74%
    09:00 +20°C° 0 mm 2 m/S 738 mmHg 68%
    10:00 +22°C° 0 mm 3 m/S 738 mmHg 62%
    11:00 +22°C° 0 mm 3 m/S 738 mmHg 60%
    12:00 +24°C° 0 mm 3 m/S 738 mmHg 59%
    13:00 +25°C° 0 mm 3 m/S 738 mmHg 57%
    14:00 +25°C° 0 mm 4 m/S 738 mmHg 58%
    15:00 +25°C° 0 mm 4 m/S 737 mmHg 59%
    16:00 +25°C° 0 mm 4 m/S 737 mmHg 60%
    17:00 +22°C° 0 mm 4 m/S 738 mmHg 67%
    18:00 +21°C° 0 mm 3 m/S 738 mmHg 73%
    19:00 +19°C° 0 mm 3 m/S 738 mmHg 79%
    20:00 +17°C° 0 mm 3 m/S 738 mmHg 81%
    21:00 +16°C° 0 mm 3 m/S 738 mmHg 82%
    22:00 +13°C° 0 mm 3 m/S 739 mmHg 84%
    23:00 +13°C° 0 mm 3 m/S 739 mmHg 83%

    28 Mai, Sonntag

    Zeit Temperatur Niederschläge Wind Luftdruck Luftfeuchtigkeit
    00:00 +12°C° 0 mm 3 m/S 739 mmHg 83%
    01:00 +11°C° 0 mm 3 m/S 739 mmHg 82%
    02:00 +12°C° 0 mm 2 m/S 738 mmHg 82%
    03:00 +10°C° 0 mm 2 m/S 738 mmHg 82%
    04:00 +10°C° 0 mm 2 m/S 738 mmHg 82%
    05:00 +13°C° 0 mm 2 m/S 739 mmHg 78%
    06:00 +15°C° 0 mm 2 m/S 739 mmHg 75%
    07:00 +18°C° 0 mm 1 m/S 739 mmHg 71%
    08:00 +19°C° 0 mm 2 m/S 739 mmHg 66%
    09:00 +21°C° 0 mm 2 m/S 739 mmHg 61%
    10:00 +24°C° 0 mm 2 m/S 739 mmHg 57%
    11:00 +25°C° 0 mm 2 m/S 738 mmHg 55%
    12:00 +26°C° 0 mm 2 m/S 738 mmHg 53%
    13:00 +27°C° 0 mm 2 m/S 738 mmHg 51%
    14:00 +27°C° 0 mm 2 m/S 737 mmHg 52%
    15:00 +28°C° 0 mm 2 m/S 737 mmHg 53%
    16:00 +28°C° 0 mm 2 m/S 737 mmHg 54%
    17:00 +26°C° 0 mm 2 m/S 737 mmHg 63%
    18:00 +24°C° 0 mm 2 m/S 737 mmHg 71%
    19:00 +22°C° 0 mm 1 m/S 736 mmHg 80%
    20:00 +20°C° 0 mm 1 m/S 736 mmHg 82%
    21:00 +18°C° 0 mm 1 m/S 736 mmHg 84%
    22:00 +14°C° 0 mm 1 m/S 736 mmHg 86%
    23:00 +14°C° 0 mm 1 m/S 736 mmHg 86%

    29 Mai, Montag

    Zeit Temperatur Niederschläge Wind Luftdruck Luftfeuchtigkeit
    00:00 +14°C° 0 mm 1 m/S 736 mmHg 86%
    01:00 +14°C° 0 mm 1 m/S 736 mmHg 86%
    02:00 +14°C° 0 mm 1 m/S 735 mmHg 86%
    03:00 +13°C° 0 mm 1 m/S 735 mmHg 86%
    04:00 +13°C° 0 mm 1 m/S 735 mmHg 86%
    05:00 +16°C° 0 mm 1 m/S 735 mmHg 81%
    06:00 +19°C° 0 mm 1 m/S 735 mmHg 75%
    07:00 +20°C° 0 mm 0 m/S 736 mmHg 69%
    08:00 +24°C° 0 mm 1 m/S 735 mmHg 65%
    09:00 +25°C° 0 mm 1 m/S 735 mmHg 61%
    10:00 +27°C° 0 mm 1 m/S 735 mmHg 57%
    11:00 +28°C° 0 mm 1 m/S 735 mmHg 56%
    12:00 +28°C° 0 mm 1 m/S 734 mmHg 55%
    13:00 +29°C° 0 mm 1 m/S 734 mmHg 54%
    14:00 +29°C° 0 mm 1 m/S 734 mmHg 54%
    15:00 +29°C° 0 mm 1 m/S 733 mmHg 55%
    16:00 +29°C° 0 mm 1 m/S 733 mmHg 55%
    17:00 +27°C° 0 mm 1 m/S 733 mmHg 63%
    18:00 +26°C° 0 mm 1 m/S 732 mmHg 72%
    19:00 +24°C° 0 mm 1 m/S 732 mmHg 80%
    20:00 +21°C° 0 mm 1 m/S 732 mmHg 83%
    21:00 +17°C° 0 mm 0 m/S 732 mmHg 87%
    22:00 +15°C° 0 mm 0 m/S 732 mmHg 90%
    23:00 +16°C° 0 mm 1 m/S 732 mmHg 90%

    30 Mai, Dienstag

    Zeit Temperatur Niederschläge Wind Luftdruck Luftfeuchtigkeit
    00:00 +16°C° 0 mm 1 m/S 731 mmHg 89%
    01:00 +16°C° 0 mm 1 m/S 731 mmHg 88%
    02:00 +16°C° 0 mm 1 m/S 731 mmHg 89%
    03:00 +16°C° 0 mm 1 m/S 731 mmHg 89%
    04:00 +15°C° 0 mm 1 m/S 731 mmHg 90%
    05:00 +19°C° 0 mm 1 m/S 731 mmHg 84%
    06:00 +19°C° 0 mm 0 m/S 732 mmHg 78%
    07:00 +22°C° 0 mm 0 m/S 732 mmHg 72%
    08:00 +24°C° 0 mm 0 m/S 732 mmHg 68%
    09:00 +25°C° 0 mm 0 m/S 732 mmHg 63%
    10:00 +29°C° 0 mm 1 m/S 732 mmHg 59%
    11:00 +29°C° 0,1 mm 1 m/S 731 mmHg 57%
    12:00 +30°C° 0,1 mm 1 m/S 731 mmHg 56%
    13:00 +30°C° 0,1 mm 1 m/S 731 mmHg 54%
    14:00 +30°C° 0,2 mm 1 m/S 731 mmHg 55%
    15:00 +30°C° 0,2 mm 1 m/S 731 mmHg 56%
    16:00 +30°C° 0,2 mm 1 m/S 731 mmHg 56%
    17:00 +28°C° 0,4 mm 1 m/S 731 mmHg 64%
    18:00 +27°C° 0,4 mm 1 m/S 731 mmHg 72%
    19:00 +25°C° 0,4 mm 1 m/S 731 mmHg 80%
    20:00 +24°C° 0,2 mm 1 m/S 731 mmHg 84%
    21:00 +22°C° 0,2 mm 1 m/S 731 mmHg 87%
    22:00 +21°C° 0,2 mm 1 m/S 731 mmHg 90%
    23:00 +21°C° 0,2 mm 1 m/S 731 mmHg 90%
    Mehr zeigen